This is the latest recevied weather packets stored in our database for station/object K1RFS. If no packets are shown the sender has not sent any weather packets the latest 10 day(s).
| Time | Temp. | Humidity | Pressure | Rain* | Wind** | Luminosity | Snow |
|---|---|---|---|---|---|---|---|
| 1787830881 | 21.11° C | 47% | 1006.8 hPa | 0 mm | - | 0 W/m² | - |
| 1787830581 | 21.11° C | 47% | 1006.5 hPa | 0 mm | - | 0 W/m² | - |
| 1787830275 | 21.11° C | 47% | 1006.3 hPa | 0 mm | - | 0 W/m² | - |
| 1787829975 | 21.11° C | 48% | 1006.6 hPa | 0 mm | - | 0 W/m² | - |
| 1787829674 | 21.11° C | 47% | 1006.4 hPa | 0 mm | - | 0 W/m² | - |
| 1787829369 | 21.11° C | 47% | 1006.5 hPa | 0 mm | - | 0 W/m² | - |
| 1787829065 | 21.11° C | 47% | 1006.6 hPa | 0 mm | - | 0 W/m² | - |
| 1787828761 | 21.11° C | 46% | 1006.5 hPa | 0 mm | - | 0 W/m² | - |
| 1787828457 | 21.67° C | 46% | 1006.5 hPa | 0 mm | - | 0 W/m² | - |
| 1787828156 | 21.67° C | 45% | 1006.5 hPa | 0 mm | - | 0 W/m² | - |
| 1787827855 | 21.67° C | 44% | 1006.5 hPa | 0 mm | - | 0 W/m² | - |
| 1787827551 | 22.22° C | 42% | 1006.5 hPa | 0 mm | - | 0 W/m² | - |
| 1787827250 | 22.22° C | 41% | 1006.8 hPa | 0 mm | - | 0 W/m² | - |
| 1787826949 | 22.78° C | 40% | 1006.5 hPa | 0 mm | - | 0 W/m² | - |
| 1787826644 | 22.22° C | 41% | 1006.9 hPa | 0 mm | - | 0 W/m² | - |
| 1787826340 | 22.22° C | 42% | 1006.5 hPa | 0 mm | - | 0 W/m² | - |
| 1787826037 | 21.67° C | 44% | 1006.5 hPa | 0 mm | - | 0 W/m² | - |
| 1787825734 | 21.67° C | 43% | 1006.8 hPa | 0 mm | - | 0 W/m² | - |
| 1787825434 | 22.22° C | 43% | 1006.8 hPa | 0 mm | - | 0 W/m² | - |
| 1787825133 | 21.67° C | 42% | 1006.8 hPa | 0 mm | - | 0 W/m² | - |
| 1787824831 | 21.67° C | 43% | 1006.8 hPa | 0 mm | - | 0 W/m² | - |
| 1787824530 | 22.22° C | 43% | 1007 hPa | 0 mm | - | 0 W/m² | - |
| 1787824230 | 22.78° C | 42% | 1006.9 hPa | 0 mm | - | 0 W/m² | - |
| 1787823927 | 23.33° C | 41% | 1006.9 hPa | 0 mm | - | 0 W/m² | - |
| 1787823621 | 23.33° C | 38% | 1007 hPa | 0 mm | - | 0 W/m² | - |
* Rain latest hour (hover to see other rain measurements)
** Current wind speed in m/s (hover to see current wind gust speed)